DateTimeUTC,BaB_A11,BaG_A11,BaR_A11
2019-07-29 16:31:00,-002.48,-000.67,-000.65
2019-07-29 16:31:17,-002.47,-000.66,-000.63
2019-07-29 16:32:00,-002.56,-000.69,-000.56
2019-07-29 16:33:00,-001.37,-000.16,0000.00
2019-07-29 16:34:00,-000.20,0000.13,-000.03
2019-07-29 16:35:00,0013.37,0011.65,0009.69
2019-07-29 16:36:00,0013.66,0011.67,0009.14
2019-07-29 16:38:00,-000.29,-000.22,-000.29
2019-07-29 16:39:00,0000.05,-000.28,-000.13
2019-07-29 16:40:00,-000.24,-000.08,-000.31
2019-07-29 16:41:00,-000.08,-000.24,-000.26
2019-07-29 16:42:00,-000.21,-000.18,-000.05
2019-07-29 16:43:00,0000.32,0000.19,0000.03
2019-07-29 16:44:00,-000.23,-000.20,-000.25
2019-07-29 16:45:00,-000.21,-000.18,-000.12
2019-07-29 16:46:00,0000.11,-000.06,0000.00
2019-07-29 16:47:00,0000.05,0000.14,-000.08
2019-07-29 16:48:00,-000.07,-000.10,0000.02
2019-07-29 16:49:00,-000.00,-000.02,0000.05
2019-07-29 16:50:00,-000.03,-000.07,-000.19
2019-07-29 16:51:00,0000.33,0000.27,0000.21
2019-07-29 16:52:00,-000.22,-000.26,-000.17
2019-07-29 16:53:00,0000.20,0000.16,0000.11
2019-07-29 16:54:00,-000.03,0000.07,-000.05
2019-07-29 16:55:00,0000.17,-000.07,0000.27
2019-07-29 16:55:27,-001.02,-000.42,-000.12
2019-07-29 16:55:28,-001.64,0000.41,0000.56
2019-07-29 16:55:29,0000.52,0002.13,0002.31
2019-07-29 16:55:31,0001.97,0000.87,-001.45
2019-07-29 16:55:32,-002.16,-001.43,-002.46
2019-07-29 16:55:33,0000.34,0000.50,0000.52
2019-07-29 16:55:35,0000.63,-000.56,-000.47
2019-07-29 16:55:36,-001.63,-001.05,-001.22
2019-07-29 16:55:38,-000.47,-002.94,-000.53
2019-07-29 16:55:39,-002.40,-000.64,-000.90
2019-07-29 16:55:40,-000.99,0003.68,-000.22
2019-07-29 16:55:41,0001.11,0001.51,-000.23
2019-07-29 16:55:43,0002.63,0000.65,0002.50
2019-07-29 16:55:44,0003.92,-000.74,0000.04
2019-07-29 16:55:46,0000.59,-000.14,-000.80
2019-07-29 16:55:47,-000.43,0001.84,0003.60
2019-07-29 16:55:48,-001.67,-000.86,0003.78
2019-07-29 16:55:50,-000.40,0000.18,0000.70
2019-07-29 16:55:51,0001.63,-000.61,0000.02
2019-07-29 16:55:52,-000.75,-000.82,-000.71
2019-07-29 16:55:53,-001.20,0001.02,0000.22
2019-07-29 16:55:55,-000.44,-000.19,-001.40
2019-07-29 16:55:56,0000.93,-001.46,-001.43
2019-07-29 16:55:58,0001.24,-000.41,-001.40
2019-07-29 16:55:59,-000.07,-000.86,0002.34
2019-07-29 16:56:00,0001.26,-000.80,-001.17
2019-07-29 16:56:01,0001.90,0000.11,-000.13
2019-07-29 16:56:03,0001.16,0002.93,0000.82
2019-07-29 16:56:04,-000.79,0001.55,0001.11
2019-07-29 16:56:06,-001.67,-000.67,0001.27
2019-07-29 16:56:07,-002.72,0000.94,0000.08
2019-07-29 16:56:09,-000.70,-001.06,-000.63
2019-07-29 16:56:10,-000.01,0000.38,-001.69
2019-07-29 16:56:11,-000.27,-000.94,-001.28
2019-07-29 16:56:12,0000.62,-000.97,-001.57
2019-07-29 16:56:14,0000.47,-001.23,0000.11
2019-07-29 16:56:15,-001.06,-000.69,0002.08
2019-07-29 16:56:16,-000.96,0000.21,0000.19
2019-07-29 16:56:18,0000.88,0002.04,-000.50
2019-07-29 16:56:19,0001.13,-000.94,-000.20
2019-07-29 16:56:20,0000.15,0001.73,0000.25
2019-07-29 16:56:22,0000.17,-000.66,-001.91
2019-07-29 16:56:23,-000.10,-000.70,-001.90
2019-07-29 16:56:24,-001.86,-000.11,0001.20
2019-07-29 16:56:26,-000.19,0001.17,0002.63
2019-07-29 16:56:27,-000.34,0000.07,0000.26
2019-07-29 16:56:28,-002.59,-002.30,-000.18
2019-07-29 16:56:29,-003.15,-002.90,0002.81
2019-07-29 16:56:31,-000.20,0000.90,-001.78
2019-07-29 16:56:32,0002.20,0005.27,0001.55
2019-07-29 16:56:34,0001.33,0002.18,0002.81
2019-07-29 16:56:35,-000.28,-003.63,0000.13
2019-07-29 16:56:36,-001.95,-004.14,-004.48
2019-07-29 16:56:37,-000.65,-002.51,-002.40
2019-07-29 16:56:39,-000.13,0000.39,0000.52
2019-07-29 16:56:40,0000.30,-000.19,-002.15
2019-07-29 16:56:42,0000.58,0001.08,0000.32
2019-07-29 16:56:43,-000.52,0001.53,-000.34
2019-07-29 16:56:44,-000.01,-000.59,0002.10
2019-07-29 16:56:46,0000.20,0001.48,0000.79
2019-07-29 16:56:47,0001.47,0001.75,0001.18
2019-07-29 16:56:48,-000.53,0000.89,-000.62
2019-07-29 16:56:49,-000.66,-001.84,-004.83
2019-07-29 16:56:51,-003.30,-001.64,-001.81
2019-07-29 16:56:52,0000.53,0000.01,-000.10
2019-07-29 16:56:54,0000.78,-002.88,-000.96
2019-07-29 16:56:55,0001.56,-002.36,-001.23
2019-07-29 16:56:56,0002.23,0002.81,0002.93
2019-07-29 16:56:58,-002.05,0001.19,0002.28
2019-07-29 16:56:59,-001.84,0001.57,-001.10
2019-07-29 16:57:00,0000.37,-000.07,0000.81
2019-07-29 16:57:02,0001.02,-001.83,-000.37
2019-07-29 16:57:03,-001.50,-000.95,0000.37
2019-07-29 16:57:04,-001.25,0000.27,-001.22
2019-07-29 16:57:05,-000.25,-000.73,0000.43
2019-07-29 16:57:07,0001.89,-002.57,-001.23
2019-07-29 16:57:08,0001.83,-000.84,0000.34
2019-07-29 16:57:09,0001.08,-000.77,0001.23
2019-07-29 16:57:11,-001.29,-001.20,-000.03
2019-07-29 16:57:12,-001.07,-000.42,0001.10
2019-07-29 16:57:13,-000.03,0000.01,0000.62
2019-07-29 16:57:15,-000.38,-000.11,-000.28
2019-07-29 16:57:16,-001.16,0000.84,-002.90
2019-07-29 16:57:17,-000.62,0002.63,-001.71
2019-07-29 16:57:19,-000.44,0002.26,-000.05
2019-07-29 16:57:20,0002.25,0001.36,-000.07
2019-07-29 16:57:21,0000.39,-000.69,0000.63
2019-07-29 16:57:22,-001.31,-000.10,0000.24
2019-07-29 16:57:24,-000.04,0000.38,0000.45
2019-07-29 16:57:25,-001.39,0001.05,0001.08
2019-07-29 16:57:26,0000.50,-003.02,-000.53
2019-07-29 16:57:27,-001.43,-001.19,-000.55
2019-07-29 16:57:29,0002.62,0000.46,-002.17
2019-07-29 16:57:30,-000.93,0000.44,-000.84
2019-07-29 16:57:31,-002.88,0000.78,-001.09
2019-07-29 16:57:33,0001.24,0000.06,-000.73
2019-07-29 16:57:34,0002.08,0000.68,0000.88
2019-07-29 16:57:35,0001.67,-000.10,0003.66
2019-07-29 16:57:37,-000.24,-000.45,0002.76
2019-07-29 16:57:38,-000.32,-000.82,0002.05
2019-07-29 16:57:39,-001.05,-001.58,-000.57
2019-07-29 16:57:41,-001.78,-000.03,-003.09
2019-07-29 16:57:42,0000.36,-001.39,-002.54
2019-07-29 16:57:43,0000.44,0000.92,-002.64
2019-07-29 16:57:44,-001.97,-001.25,-003.43
2019-07-29 16:57:46,-001.98,-001.19,-001.91
2019-07-29 16:57:47,0002.68,0003.50,0004.18
2019-07-29 16:57:48,0000.98,0000.34,0001.48
2019-07-29 16:57:50,-002.34,0000.68,-001.14
2019-07-29 16:57:51,-001.91,-001.20,-001.44
2019-07-29 16:57:52,0000.14,0000.04,0000.71
2019-07-29 16:57:54,0002.51,0002.35,0001.58
2019-07-29 16:57:55,-000.50,-000.63,-000.00
2019-07-29 16:57:56,-000.98,-002.91,0000.32
2019-07-29 16:57:58,-001.94,-001.98,0002.51
2019-07-29 16:57:59,0001.62,0001.15,0002.04
2019-07-29 16:58:00,0000.61,-000.01,0002.68
2019-07-29 16:58:02,-003.22,0000.30,-001.32
2019-07-29 16:58:03,-002.84,-002.00,-003.30
2019-07-29 16:58:04,-001.87,-002.72,-001.53
2019-07-29 16:58:06,0001.54,-001.37,0001.19
2019-07-29 16:58:07,0001.24,0000.40,0000.90
2019-07-29 16:58:08,-000.09,-000.66,-000.29
2019-07-29 16:58:10,0001.93,0003.02,-002.60
2019-07-29 16:58:11,0003.65,0003.89,-003.04
2019-07-29 16:58:12,-000.08,0000.11,0000.31
2019-07-29 16:58:13,0000.21,-000.57,0005.14
2019-07-29 16:58:15,-002.37,-000.19,0002.70
2019-07-29 16:58:16,0000.09,-002.59,-000.87
2019-07-29 16:58:17,-001.15,-000.91,0000.73
2019-07-29 16:58:19,-000.18,0000.72,-000.77
2019-07-29 16:58:20,0001.87,0002.18,-001.56
2019-07-29 16:58:21,0001.34,-000.41,0000.18
2019-07-29 16:58:23,0000.61,-001.81,-000.07
2019-07-29 16:58:24,-001.95,-000.48,-000.95
2019-07-29 16:58:25,-000.93,0000.71,-000.31
2019-07-29 16:58:27,0002.98,0002.46,0001.57
2019-07-29 16:58:28,-001.14,0000.15,0000.78
2019-07-29 16:58:29,0000.53,0001.30,-000.49
2019-07-29 16:58:31,0001.21,0001.11,0000.64
2019-07-29 16:58:32,-000.53,0000.69,0002.19
2019-07-29 16:58:33,0001.04,-000.92,0000.27
2019-07-29 16:58:34,0001.75,0000.31,0000.08
2019-07-29 16:58:36,0000.07,-003.80,-001.64
2019-07-29 16:58:37,0001.26,-001.74,-001.09
2019-07-29 16:58:38,0000.22,-000.21,0000.06
2019-07-29 16:58:39,-001.95,0003.47,0001.61
2019-07-29 16:58:41,-002.64,0000.57,0001.27
2019-07-29 16:58:42,-001.01,0001.58,-002.42
2019-07-29 16:58:43,-001.90,-001.68,-000.93
2019-07-29 16:58:45,-003.35,-000.82,-000.47
2019-07-29 16:58:46,0002.94,0000.33,-001.69
2019-07-29 16:58:47,-001.10,0001.14,-000.67
2019-07-29 16:58:49,0000.48,0000.16,0002.98
2019-07-29 16:58:50,0000.41,0000.46,0001.72
2019-07-29 16:58:51,0001.25,0000.45,-003.07
2019-07-29 16:58:53,0001.53,-002.14,0000.32
2019-07-29 16:58:54,0002.83,0001.16,-000.21
2019-07-29 16:58:55,0001.40,0002.36,-000.34
2019-07-29 16:58:57,-002.04,0001.04,0001.12
2019-07-29 16:58:58,-001.93,0000.44,0000.88
2019-07-29 16:58:59,0001.80,-002.11,0001.39
2019-07-29 16:59:01,-001.12,-002.90,0001.51
2019-07-29 16:59:02,-001.14,-000.59,0000.96
2019-07-29 16:59:03,0000.36,0000.99,0001.07
2019-07-29 16:59:05,0002.55,-000.33,-001.57
2019-07-29 16:59:06,-000.35,0000.06,-000.54
2019-07-29 16:59:07,-001.73,-000.72,0000.36
2019-07-29 16:59:09,0001.39,-001.28,0002.80
2019-07-29 16:59:10,0000.34,-001.05,-001.67
2019-07-29 16:59:11,0001.92,0001.02,-003.43
2019-07-29 16:59:13,-000.02,-001.17,-001.04
2019-07-29 16:59:14,-002.81,-000.80,-001.16
2019-07-29 16:59:15,0001.32,0002.64,-001.01
2019-07-29 16:59:17,0003.16,0000.91,-000.56
2019-07-29 16:59:18,-000.21,0000.79,-000.41
2019-07-29 16:59:19,-002.85,-000.38,-002.27
2019-07-29 16:59:21,-001.89,-001.42,0000.35
2019-07-29 16:59:22,-000.35,0001.72,0001.63
2019-07-29 16:59:23,0001.77,-000.48,0002.03
2019-07-29 16:59:25,0000.91,-001.73,0002.40
2019-07-29 16:59:26,0000.69,-000.71,0001.22
2019-07-29 16:59:27,-001.00,-003.46,0001.01
2019-07-29 16:59:28,-001.25,-001.95,-001.60
2019-07-29 16:59:29,0001.23,0001.61,0001.18
2019-07-29 16:59:30,0001.35,0000.36,-000.05
2019-07-29 16:59:31,0002.33,0000.45,-000.14
2019-07-29 16:59:33,-001.97,0003.13,-001.11
2019-07-29 16:59:34,-002.79,-002.52,0000.14
2019-07-29 16:59:35,-001.51,0001.14,0001.19
2019-07-29 16:59:37,0005.56,0001.91,0000.45
2019-07-29 16:59:38,0010.88,0006.76,0000.41
2019-07-29 16:59:39,0008.29,0000.94,0002.06
2019-07-29 16:59:40,0005.58,-001.52,-004.59
2019-07-29 16:59:43,0004.83,0009.79,0003.86
2019-07-29 16:59:45,0009.45,0013.45,0007.43
2019-07-29 16:59:46,0010.05,0010.35,0008.54
2019-07-29 16:59:47,0010.65,0007.14,0008.71
2019-07-29 16:59:48,0008.69,0008.99,0009.15
2019-07-29 16:59:49,0008.93,0007.62,0005.20
2019-07-29 16:59:50,0009.14,0009.63,0005.03
2019-07-29 16:59:51,0009.22,0009.90,0009.07
2019-07-29 16:59:52,0008.41,0009.25,0004.95
2019-07-29 16:59:53,0007.93,0007.97,0002.63
2019-07-29 16:59:54,0008.90,0005.51,0002.82
2019-07-29 16:59:55,0007.04,0006.50,0007.98
2019-07-29 16:59:56,0006.95,0005.89,0005.73
2019-07-29 16:59:57,0006.37,0004.10,0004.41
2019-07-29 16:59:59,0009.12,0003.22,0004.49
2019-07-29 17:00:00,0009.01,0005.92,0006.84
2019-07-29 17:00:01,0007.45,0008.80,0005.77
2019-07-29 17:00:03,0007.01,0008.03,0004.51
2019-07-29 17:00:04,0006.54,0008.07,0004.15
2019-07-29 17:00:05,0003.37,0003.16,-001.79
2019-07-29 17:00:06,0004.98,0006.25,0002.98
2019-07-29 17:00:07,0008.07,0006.24,0001.50
2019-07-29 17:00:08,0007.38,0004.88,0002.51
2019-07-29 17:00:09,0009.44,0005.71,0004.34
2019-07-29 17:00:10,0009.14,0005.44,0004.98
2019-07-29 17:00:11,0009.38,0007.22,0007.87
2019-07-29 17:00:12,0007.76,0005.34,0006.20
2019-07-29 17:00:13,0006.63,0004.93,0003.74
2019-07-29 17:00:14,0009.09,0008.59,0009.16
2019-07-29 17:00:15,0007.92,0006.91,0008.19
2019-07-29 17:00:16,0007.58,0005.78,0005.69
2019-07-29 17:00:17,0008.38,0005.89,0004.35
2019-07-29 17:00:18,0009.77,0009.09,0003.19
2019-07-29 17:00:19,0007.83,0004.13,0004.91
2019-07-29 17:00:20,0007.12,0009.25,0004.49
2019-07-29 17:00:21,0011.31,0008.83,0004.79
2019-07-29 17:00:22,0008.29,0006.85,0006.18
2019-07-29 17:00:24,0007.98,0010.68,0007.08
2019-07-29 17:00:25,0007.07,0008.37,0006.85
2019-07-29 17:00:26,0006.47,0005.81,0005.88
2019-07-29 17:00:27,0008.35,0007.84,0003.00
2019-07-29 17:00:28,0009.97,0006.13,0003.70
2019-07-29 17:00:29,0009.12,0006.31,0003.17
2019-07-29 17:00:30,0010.74,0004.73,0003.17
2019-07-29 17:00:31,0006.19,0006.21,0005.37
2019-07-29 17:00:32,0005.58,0005.34,0006.54
2019-07-29 17:00:33,0004.33,0007.84,0005.84
2019-07-29 17:00:34,0006.81,0006.54,0002.79
2019-07-29 17:00:36,0009.12,0003.79,0007.32
2019-07-29 17:00:37,0009.02,0005.09,0009.83
2019-07-29 17:00:38,0008.50,0004.81,0010.16
2019-07-29 17:00:39,0009.87,0006.77,0005.13
2019-07-29 17:00:40,0008.22,0008.41,0006.93
2019-07-29 17:00:41,0005.55,0009.90,0002.35
2019-07-29 17:00:42,0007.15,0007.88,0006.81
2019-07-29 17:00:44,0007.99,0004.41,0004.33
2019-07-29 17:00:45,0006.68,0005.96,0002.59
2019-07-29 17:00:46,0007.34,0005.55,0003.71
2019-07-29 17:00:47,0010.96,0005.92,0007.00
2019-07-29 17:00:48,0010.85,0005.22,0005.12
2019-07-29 17:00:49,0008.46,0005.31,0004.30
2019-07-29 17:00:50,0007.48,0005.09,0005.68
2019-07-29 17:00:51,0007.35,0006.80,0001.18
2019-07-29 17:00:52,0011.26,0010.47,0003.01
2019-07-29 17:00:53,0010.64,0008.56,0006.29
2019-07-29 17:00:54,0006.95,0007.10,0006.20
2019-07-29 17:00:55,0007.36,0010.68,0003.27
2019-07-29 17:00:56,0010.23,0007.37,0004.46
2019-07-29 17:00:57,0007.52,0004.87,0001.64
2019-07-29 17:00:58,0008.13,0005.92,0006.42
2019-07-29 17:00:59,0007.44,0006.34,0007.44
2019-07-29 17:01:00,0008.03,0005.94,0005.27
2019-07-29 17:01:01,0008.40,0005.74,0006.10
2019-07-29 17:01:02,0006.75,0006.52,0003.86
2019-07-29 17:01:03,0006.65,0007.13,0007.34
2019-07-29 17:01:04,0005.99,0008.32,0011.78
2019-07-29 17:01:05,0007.21,0009.05,0006.90
2019-07-29 17:01:06,0008.18,0004.55,0004.53
2019-07-29 17:01:07,0009.24,0007.28,0004.38
2019-07-29 17:01:08,0011.42,0010.01,0007.14
2019-07-29 17:01:09,0010.31,0007.39,0006.57
2019-07-29 17:01:10,0010.95,0006.49,0002.10
2019-07-29 17:01:11,0008.83,0006.31,0004.07
2019-07-29 17:01:12,0012.94,0006.46,0003.46
2019-07-29 17:01:13,0010.86,0007.04,0008.64
2019-07-29 17:01:14,0010.40,0003.83,0006.36
2019-07-29 17:01:15,0007.14,0004.91,0004.09
2019-07-29 17:01:16,0006.17,0007.30,0004.79
2019-07-29 17:01:17,0005.13,0010.39,0007.52
2019-07-29 17:01:18,0002.28,0009.90,0005.85
2019-07-29 17:01:19,0004.62,0005.23,0007.03
2019-07-29 17:01:20,0008.16,0007.08,0009.21
2019-07-29 17:01:21,0006.58,0010.50,0005.92
2019-07-29 17:01:22,0008.08,0009.91,0002.00
2019-07-29 17:01:23,0011.60,0008.09,0001.48
2019-07-29 17:01:24,0013.60,0005.19,0002.91
2019-07-29 17:01:25,0009.05,0007.72,0005.73
2019-07-29 17:01:26,0009.27,0010.44,0006.95
2019-07-29 17:01:27,0009.11,0004.20,0004.95
2019-07-29 17:01:28,0010.10,0002.41,0004.31
2019-07-29 17:01:29,0005.23,0002.06,0005.26
2019-07-29 17:01:30,0005.82,0007.82,0007.69
2019-07-29 17:01:31,0010.36,0009.35,0003.47
2019-07-29 17:01:32,0011.25,0006.94,0004.10
2019-07-29 17:01:33,0009.74,0009.54,0005.68
2019-07-29 17:01:34,0010.50,0008.32,0004.34
2019-07-29 17:01:35,0010.45,0007.21,0008.62
2019-07-29 17:01:36,0009.77,0011.59,0007.14
2019-07-29 17:01:37,0007.12,0011.54,0010.90
2019-07-29 17:01:38,0005.19,0006.08,0003.76
2019-07-29 17:01:39,0001.45,0001.55,-000.32
2019-07-29 17:01:40,0001.18,0001.48,0001.52
2019-07-29 17:01:41,0003.22,-000.08,0002.42
2019-07-29 17:01:42,0005.19,0005.92,0002.31
2019-07-29 17:01:43,0007.26,0007.23,0003.95
2019-07-29 17:01:44,0010.24,0005.89,0004.92
2019-07-29 17:01:45,0011.79,0005.92,0007.22
2019-07-29 17:01:46,0009.27,0009.83,0007.02
2019-07-29 17:01:47,0008.34,0006.70,0004.18
2019-07-29 17:01:48,0009.56,0006.01,0002.93
2019-07-29 17:01:49,0010.08,0006.86,0005.59
2019-07-29 17:01:50,0010.22,0004.21,0004.12
2019-07-29 17:01:51,0006.75,0003.82,0005.02
2019-07-29 17:01:52,0005.29,0007.11,0002.28
2019-07-29 17:01:53,0006.26,0007.87,0001.28
2019-07-29 17:01:54,0008.14,0010.74,0003.90
2019-07-29 17:01:55,0005.78,0006.00,0004.65
2019-07-29 17:01:56,0006.08,0008.80,0006.19
2019-07-29 17:01:57,0007.71,0006.29,0005.64
2019-07-29 17:01:58,0006.41,0005.46,0008.13
2019-07-29 17:01:59,0006.27,0002.86,0006.63
2019-07-29 17:02:00,0010.55,0002.79,0002.31
2019-07-29 17:02:01,0009.55,0007.52,0006.23
2019-07-29 17:02:02,0008.55,0008.15,0007.52
2019-07-29 17:02:03,0008.73,0006.21,0004.62
2019-07-29 17:02:04,0005.98,0006.00,0004.30
2019-07-29 17:02:05,0002.78,0004.19,0006.27
2019-07-29 17:02:06,0008.34,0008.08,0003.44
2019-07-29 17:02:07,0008.96,0009.61,0004.78
2019-07-29 17:02:08,0008.75,0009.17,0006.87
2019-07-29 17:02:09,0008.48,0007.28,0003.99
2019-07-29 17:02:10,0008.77,0005.42,0002.58
2019-07-29 17:02:11,0007.47,0004.81,0006.59
2019-07-29 17:02:12,0008.42,0007.31,0006.19
2019-07-29 17:02:13,0006.46,0007.21,0006.03
2019-07-29 17:02:14,0006.92,0007.16,0006.05
2019-07-29 17:02:15,0006.37,0006.40,0001.66
2019-07-29 17:02:16,0007.72,0007.44,0002.39
2019-07-29 17:02:17,0009.55,0005.50,0003.68
2019-07-29 17:02:18,0011.52,0009.79,0005.18
2019-07-29 17:02:19,0012.39,0009.54,0007.31
2019-07-29 17:02:20,0014.09,0009.44,0007.49
2019-07-29 17:02:21,0008.86,0005.58,0005.23
2019-07-29 17:02:22,0005.30,0007.34,0004.76
2019-07-29 17:02:23,0004.89,0007.48,0007.05
2019-07-29 17:02:24,0004.92,0004.80,0005.42
2019-07-29 17:02:25,0006.11,0006.76,0005.20
2019-07-29 17:02:26,0009.21,0009.56,0007.92
2019-07-29 17:02:27,0006.52,0007.71,0006.36
2019-07-29 17:02:28,0008.74,0009.06,0002.42
2019-07-29 17:02:29,0011.35,0009.39,0001.80
2019-07-29 17:02:30,0009.14,0003.21,0007.68
2019-07-29 17:02:31,0008.35,0004.52,0005.60
2019-07-29 17:02:32,0010.78,0007.50,0004.41
2019-07-29 17:02:33,0009.28,0008.99,0004.41
2019-07-29 17:02:34,0006.79,0005.53,0004.28
2019-07-29 17:02:35,0003.88,0000.45,0005.23
2019-07-29 17:02:36,0005.26,0005.54,0004.40
2019-07-29 17:02:37,0006.59,0004.70,0006.48
2019-07-29 17:02:38,0008.97,0004.56,0006.29
2019-07-29 17:02:39,0007.51,0007.29,0007.53
2019-07-29 17:02:40,0010.54,0008.50,0007.19
2019-07-29 17:02:41,0009.70,0009.11,0001.77
2019-07-29 17:02:42,0010.32,0009.87,0006.36
2019-07-29 17:02:43,0012.18,0010.47,0007.48
2019-07-29 17:02:44,0009.45,0006.78,0004.60
2019-07-29 17:02:45,0005.07,0006.04,0002.43
2019-07-29 17:02:46,0003.52,0004.17,0003.71
2019-07-29 17:02:47,0008.05,0004.75,0004.39
2019-07-29 17:02:48,0005.72,0007.07,0002.24
2019-07-29 17:02:49,0004.60,0006.50,0002.14
2019-07-29 17:02:50,0005.82,0006.40,0003.62
2019-07-29 17:02:51,0005.94,0004.50,0006.14
2019-07-29 17:02:52,0008.71,0006.37,0002.60
2019-07-29 17:02:53,0008.29,0007.55,0005.52
2019-07-29 17:02:54,0007.59,0006.33,0005.97
2019-07-29 17:02:55,0008.23,0006.98,0007.26
2019-07-29 17:02:56,0007.80,0009.22,0005.87
2019-07-29 17:02:57,0008.59,0011.03,0008.36
2019-07-29 17:02:58,0008.39,0007.12,0006.73
2019-07-29 17:02:59,0009.55,0005.38,0007.05
2019-07-29 17:03:00,0010.73,0005.71,0004.74
2019-07-29 17:03:01,0011.87,0009.17,0004.19
2019-07-29 17:03:02,0013.91,0011.96,0006.27
2019-07-29 17:03:03,0008.97,0006.38,0006.77
2019-07-29 17:03:04,0009.38,0005.07,0008.21
2019-07-29 17:03:05,0007.72,0009.20,0011.02
2019-07-29 17:03:06,0007.51,0009.52,0004.38
2019-07-29 17:03:07,0007.73,0008.67,0005.80
2019-07-29 17:03:08,0008.18,0008.73,0007.05
2019-07-29 17:03:09,0008.29,0006.63,0002.37
2019-07-29 17:03:10,0010.16,0007.02,0002.37
2019-07-29 17:03:11,0008.20,0003.41,0002.89
2019-07-29 17:03:12,0008.92,0005.78,0005.68
2019-07-29 17:03:13,0006.46,0005.85,0005.26
2019-07-29 17:03:14,0008.94,0007.13,0007.02
2019-07-29 17:03:15,0008.00,0005.11,0005.18
2019-07-29 17:03:16,0008.42,0005.07,0005.11
2019-07-29 17:03:17,0008.54,0005.81,0005.38
2019-07-29 17:03:18,0007.92,0006.27,0003.93
2019-07-29 17:03:19,0008.73,0010.11,0006.90
2019-07-29 17:03:20,0005.86,0011.70,0006.83
2019-07-29 17:03:21,0010.07,0007.42,0004.48
2019-07-29 17:03:22,0008.79,0006.01,0003.19
2019-07-29 17:03:23,0005.55,0005.37,0004.04
2019-07-29 17:03:24,0007.40,0005.08,0004.49
2019-07-29 17:03:25,0005.80,0007.23,0005.57
2019-07-29 17:03:26,0007.09,0007.35,0005.68
2019-07-29 17:03:27,0009.04,0007.06,0002.70
2019-07-29 17:03:28,0007.84,0005.09,-000.42
2019-07-29 17:03:29,0006.49,0005.66,0005.57
2019-07-29 17:03:30,0005.83,0006.38,0004.77
2019-07-29 17:03:31,0006.04,0004.67,0006.43
2019-07-29 17:03:32,0005.96,0006.17,0007.34
2019-07-29 17:03:33,0011.38,0008.56,0009.46
2019-07-29 17:03:34,0007.99,0007.46,0007.11
2019-07-29 17:03:35,0008.97,0008.54,0006.26
2019-07-29 17:03:36,0011.38,0010.26,0005.33
2019-07-29 17:03:37,0009.87,0008.68,0003.08
2019-07-29 17:03:38,0010.46,0010.23,0002.42
2019-07-29 17:03:39,0008.55,0007.73,0007.24
2019-07-29 17:03:40,0005.66,0008.18,0006.06
2019-07-29 17:03:41,0007.17,0009.93,0005.74
2019-07-29 17:03:42,0006.71,0007.52,0004.67
2019-07-29 17:03:43,0011.27,0004.95,0003.46
2019-07-29 17:03:44,0009.08,0002.70,0002.70
2019-07-29 17:03:45,0007.32,0002.90,0005.38
2019-07-29 17:03:46,0009.30,0007.35,0006.52
2019-07-29 17:03:47,0010.66,0007.95,0009.80
2019-07-29 17:03:48,0011.21,0007.59,0005.13
2019-07-29 17:03:49,0009.75,0007.97,0006.25
2019-07-29 17:03:50,0008.64,0006.72,0004.36
2019-07-29 17:03:51,0004.24,0010.95,0008.30
2019-07-29 17:03:52,0005.20,0007.93,0004.22
2019-07-29 17:03:53,0007.30,0003.19,0002.36
2019-07-29 17:03:54,0006.83,0004.25,0005.16
2019-07-29 17:03:59,0008.40,0010.14,0007.01
2019-07-29 17:04:00,0009.75,0007.64,0002.17
2019-07-29 17:04:01,0006.60,0004.61,0005.26
2019-07-29 17:04:02,0003.43,0003.52,0005.11
2019-07-29 17:04:03,0008.64,0004.52,0004.26
2019-07-29 17:04:04,0008.72,0006.26,0005.35
2019-07-29 17:04:05,0005.84,0005.96,0005.59
2019-07-29 17:04:06,0004.91,0008.74,0005.31
2019-07-29 17:04:07,0006.88,0006.59,0005.90
2019-07-29 17:04:08,0008.11,0003.46,0000.01
2019-07-29 17:04:09,0008.80,0007.26,0001.83
2019-07-29 17:04:10,0010.11,0004.27,0006.10
2019-07-29 17:04:11,0007.15,0003.29,0007.23
2019-07-29 17:04:12,0008.31,0004.41,0009.53
2019-07-29 17:04:13,0010.54,0002.51,0005.83
2019-07-29 17:04:14,0009.10,0006.45,0005.74
2019-07-29 17:04:15,0006.40,0008.38,0005.28
2019-07-29 17:04:16,0006.77,0009.68,0005.43
2019-07-29 17:04:17,0009.43,0008.05,0001.79
2019-07-29 17:04:18,0008.14,0006.78,0000.46
2019-07-29 17:04:19,0008.47,0006.60,0002.18
2019-07-29 17:04:20,0007.29,0004.44,0005.49
2019-07-29 17:04:21,0007.97,0004.66,0006.16
2019-07-29 17:04:22,0007.73,0009.01,0007.32
2019-07-29 17:04:23,0007.95,0007.98,0009.35
2019-07-29 17:04:24,0005.25,0006.58,0006.18
2019-07-29 17:04:25,0006.24,0002.92,0003.55
2019-07-29 17:04:26,0006.30,0007.60,0001.78
2019-07-29 17:04:27,0010.78,0007.97,0003.99
2019-07-29 17:04:28,0009.79,0005.32,0003.60
2019-07-29 17:04:29,0009.84,0011.12,0005.39
2019-07-29 17:04:30,0006.11,0008.71,0005.99
2019-07-29 17:04:31,0005.06,0007.08,0006.13
2019-07-29 17:04:32,0007.40,0006.40,0005.24
2019-07-29 17:04:33,0008.80,0007.72,0008.24
2019-07-29 17:04:34,0009.97,0011.50,0005.81
2019-07-29 17:04:35,0012.63,0010.41,0007.58
2019-07-29 17:04:36,0011.52,0006.56,0007.40
2019-07-29 17:04:37,0008.42,0008.87,0001.10
2019-07-29 17:04:38,0010.15,0007.25,0001.07
2019-07-29 17:04:39,0009.81,0005.80,0002.49
2019-07-29 17:04:40,0008.41,0005.90,0007.71
2019-07-29 17:04:41,0007.88,0007.93,0008.20
2019-07-29 17:04:42,0005.54,0008.38,0005.43
2019-07-29 17:04:43,0007.83,0009.00,0005.49
2019-07-29 17:04:44,0009.33,0010.64,0006.43
2019-07-29 17:04:45,0007.84,0010.14,0005.14
2019-07-29 17:04:46,0012.51,0008.83,0005.06
2019-07-29 17:04:47,0011.98,0007.78,0006.50
2019-07-29 17:04:48,0011.33,0005.36,0008.31
2019-07-29 17:04:49,0010.30,0006.04,0010.23
2019-07-29 17:04:50,0007.54,0006.23,0010.03
2019-07-29 17:04:51,0005.17,0003.90,0005.18
2019-07-29 17:04:52,0005.65,0007.95,0002.24
2019-07-29 17:04:53,0006.09,0008.18,0003.52
2019-07-29 17:04:54,0008.41,0006.32,0003.67
2019-07-29 17:04:55,0007.41,0011.43,0000.68
2019-07-29 17:04:56,0009.43,0007.78,0000.82
2019-07-29 17:04:57,0009.26,0005.67,0003.24
2019-07-29 17:04:58,0007.04,0005.60,0007.64
2019-07-29 17:04:59,0006.64,0008.22,0007.06
2019-07-29 17:05:00,0005.99,0007.07,0005.96
2019-07-29 17:05:01,0009.09,0007.94,0003.33
2019-07-29 17:05:02,0011.95,0008.80,0005.07
2019-07-29 17:05:03,0013.90,0009.66,0006.23
2019-07-29 17:05:04,0014.61,0010.09,0007.08
2019-07-29 17:05:05,0010.97,0011.80,0005.54
2019-07-29 17:05:06,0010.02,0010.00,0010.41
2019-07-29 17:05:07,0004.60,0006.49,0005.72
2019-07-29 17:05:08,0003.17,0004.14,0003.56
2019-07-29 17:05:09,0005.23,0005.13,0002.78
2019-07-29 17:05:10,0005.61,0006.71,0001.55
2019-07-29 17:05:11,0007.24,0003.56,0005.10
2019-07-29 17:05:12,0009.14,0005.68,0004.17
2019-07-29 17:05:13,0008.03,0006.86,0004.74
2019-07-29 17:05:14,0008.65,0008.58,0006.07
2019-07-29 17:05:15,0009.42,0009.61,0006.90
2019-07-29 17:05:16,0008.41,0003.48,0004.71
2019-07-29 17:05:17,0010.80,0005.26,0004.85